Lid_Strength_Index
9 8 9 9 9 8 9 8 10 9 9 7 8 7 6 5 4 4 4 3 3 3 3 4 3 2 2 2 2 1 2 2 2 1 1 1 1 1 0 0 0 0 0 0
10 9 9 10 9 9 8 8 8 8 9 6 6 5 6 5 5 5 5 4 4 3 3 3 3 3 2 2 2 1 2 2 1 1 1 1 1 1 1 1 1 1 1 1
14 9 10 12 9 9 8 7 8 10 8 7 7 6 6 5 6 5 4 4 4 3 3 3 2 2 2 2 1 2 2 2 2 1 2 1 1 1 1 1 1 1 1 1
14 12 18 10 6 7 8 8 7 8 8 8 8 7 6 4 6 4 4 4 3 3 3 2 2 2 2 2 2 2 2 2 2 2 2 1 1 1 1 1 1 1 1 1
15 15 11 9 7 8 9 8 6 6 6 6 7 8 7 6 4 4 3 3 3 2 2 2 2 2 2 2 2 2 2 2 2 2 2 2 2 2 1 1 1 1 1 1
12 16 17 9 7 5 6 11 6 6 7 7 6 9 8 4 4 3 3 3 3 2 2 2 2 2 2 2 2 3 2 2 1 1 2 2 2 2 1 1 1 1 1 1
14 14 11 7 6 5 12 10 6 6 7 7 8 6 4 4 4 3 3 3 2 2 3 2 2 2 3 2 3 2 1 1 1 1 1 1 1 1 1 1 1 1 1 1
13 15 16 6 7 10 8 6 5 5 5 6 6 5 4 4 4 3 3 3 2 3 3 2 2 3 3 3 1 1 1 2 2 1 1 1 2 1 1 2 2 2 2 2
13 12 7 6 7 5 5 6 5 5 4 5 6 5 4 4 4 3 3 3 2 3 3 2 2 3 3 2 2 2 2 2 2 1 1 1 2 2 2 2 2 2 2 2
11 8 8 6 5 4 4 5 4 4 4 5 6 5 4 4 4 3 3 3 3 3 3 3 3 4 4 4 4 2 2 2 2 2 2 2 1 2 2 2 2 2 3 3
11 9 9 7 8 7 7 4 4 4 4 5 5 5 4 4 4 3 3 3 2 3 4 4 6 6 5 5 5 2 2 2 2 2 2 2 2 2 2 1 2 2 2 2
13 10 11 10 8 7 6 5 5 5 5 4 4 5 4 4 3 3 3 3 4 4 4 5 7 7 6 6 6 4 2 2 2 2 2 2 2 2 13 9 12 11 8 4
9 8 8 8 8 7 7 7 4 5 4 5 4 4 4 4 3 3 4 5 5 5 5 6 7 8 8 7 6 6 5 5 2 3 2 2 2 3 3 6 15 15 13 11
6 7 9 9 9 8 8 7 5 5 5 5 4 4 4 5 5 5 5 6 6 6 7 6 8 8 8 7 6 6 8 11 6 4 2 2 2 2 2 3 3 3 11 10
5 6 7 7 7 8 7 8 8 8 7 6 6 5 6 7 7 7 7 7 8 7 8 9 8 9 7 7 8 5 7 9 8 6 5 3 2 2 2 2 3 2 2 9
4 5 6 7 8 8 8 8 10 9 8 7 7 7 7 7 7 7 8 8 9 10 9 9 9 9 8 9 9 7 6 8 9 7 5 6 3 2 3 3 2 3 2 2
5 6 5 7 7 7 8 8 8 8 8 8 8 7 7 8 8 8 9 9 9 10 10 9 10 9 9 10 10 9 8 4 6 5 5 4 4 4 3 2 2 2 2 2
3 3 4 4 6 7 7 8 8 8 8 8 8 8 8 9 9 10 9 10 10 10 10 9 9 9 9 9 9 7 7 6 4 6 5 4 4 4 2 2 2 3 3 3
3 3 3 4 3 4 5 7 7 8 8 8 8 9 8 9 9 10 10 10 11 12 10 10 9 9 10 9 9 8 8 8 8 8 7 7 5 5 7 6 5 4 5 4
3 3 2 2 2 3 3 3 5 7 7 8 8 9 9 9 10 10 10 11 11 11 11 10 10 10 11 11 10 11 10 10 11 11 12 10 9 9 9 10 10 9 9 9
3 3 3 2 2 2 2 2 3 5 6 7 8 9 10 9 9 10 11 12 11 9 10 10 10 11 11 11 11 12 12 13 13 13 12 13 13 13 13 12 12 12 13 13
2 2 3 2 2 2 2 2 2 3 4 5 6 8 9 10 9 9 9 10 10 9 9 10 10 9 10 10 12 12 13 14 14 14 14 14 14 15 15 15 15 15 16 15
2 2 2 2 2 2 2 2 2 2 3 4 5 6 7 8 9 10 11 9 10 9 9 9 9 10 10 11 12 12 12 12 13 14 14 15 15 15 15 15 15 15 15 15
2 1 1 1 2 2 2 2 2 2 2 3 3 3 5 7 7 6 8 9 9 9 10 10 10 9 9 10 11 11 11 11 12 13 13 14 14 15 15 15 15 15 15 15
1 1 1 2 2 2 2 1 2 2 2 2 3 3 3 3 6 6 6 7 9 9 9 9 9 9 9 10 10 10 11 12 12 12 12 13 14 14 14 14 14 14 14 14
2 2 2 1 1 2 2 2 2 2 2 3 3 3 3 3 3 4 5 5 6 7 8 8 9 9 9 9 9 10 9 9 10 11 11 11 12 13 13 14 14 14 14 14
2 3 1 2 1 1 2 2 2 3 2 2 2 2 2 3 3 3 4 4 5 6 7 7 7 8 8 9 9 9 9 9 10 9 10 10 11 11 12 12 12 12 12 12